Weather History for Newark Heath, OH

Change the Weather History Date:

Monday, October 29, 2012

  Actual Average Record
Temperature  
Mean Temperature 42 °F -  
Max Temperature 44 °F 58 °F 78 °F (1946)
Min Temperature 37 °F 36 °F 21 °F (1965)
Degree Days  
Heating Degree Days 24    
Moisture  
Dew Point 37 °F    
Average Humidity 84    
Maximum Humidity 93    
Minimum Humidity 79    
Precipitation  
Precipitation 0.29 in - - ()
Sea Level Pressure  
Sea Level Pressure 29.82 in    
Wind  
Wind Speed 12 mph (NNW)    
Max Wind Speed 23 mph    
Max Gust Speed 36 mph    
Visibility 10 miles    
Events Rain    
Averages and records for this station are not official NWS values.
T = Trace of Precipitation, MM = Missing Value Source: NWS Daily Summary

Daily Weather History Graph

Daily Weather History Graph

Search for Another Location

Airport:

Trip Planner

Search our weather history database for the weather conditions in past years. The results will help you decide how hot, cold, wet, or windy it might be!

Date:

Astronomy

Oct. 29, 2012 Rise Set
Actual Time 7:56 AM EDT 6:30 PM EDT
Civil Twilight 7:28 AM EDT 6:58 PM EDT
Nautical Twilight 6:56 AM EDT 7:30 PM EDT
Astronomical Twilight 6:24 AM EDT 8:01 PM EDT
Moon 6:21 PM EDT (10/29) 7:45 AM EDT (10/29)
Length of Visible Light 11h 30m
Length of Day
10h 34m
Full, 100% of the Moon is Illuminated
Oct 29
Full
Oct 29
Full
Nov 6
Last Quarter
Nov 13
New
Nov 20
First Quarter

Hourly Weather History & Observations

Time (EDT) Temp. Windchill Dew Point Humidity Pressure Visibility Wind Dir Wind Speed Gust Speed Precip Events Conditions
12:54 AM 41.0 °F 35.2 °F 37.0 °F 86% 29.95 in 10.0 mi NNW 9.2 mph - 0.02 in Rain Light Rain
1:41 AM 41.0 °F 35.8 °F 37.4 °F 87% 29.93 in 9.0 mi NW 8.1 mph - 0.01 in Rain Light Rain
1:54 AM 41.0 °F 34.7 °F 37.0 °F 86% 29.94 in 9.0 mi NNW 10.4 mph - 0.02 in Rain Light Rain
2:25 AM 39.2 °F 32.0 °F 37.4 °F 93% 29.92 in 10.0 mi NNW 11.5 mph - 0.01 in Rain Light Rain
2:54 AM 41.0 °F 36.4 °F 37.0 °F 86% 29.93 in 10.0 mi NNW 6.9 mph - 0.01 in Rain Light Rain
3:54 AM 42.1 °F 35.7 °F 37.0 °F 82% 29.91 in 10.0 mi North 11.5 mph 20.7 mph 0.01 in Rain Light Rain
4:54 AM 39.9 °F 33.4 °F 36.0 °F 86% 29.91 in 10.0 mi NNW 10.4 mph 20.7 mph 0.04 in Rain Light Rain
5:54 AM 39.9 °F 33.4 °F 36.0 °F 86% 29.90 in 10.0 mi NNW 10.4 mph - 0.01 in Rain Light Rain
6:54 AM 39.9 °F 32.9 °F 36.0 °F 86% 29.90 in 10.0 mi NNW 11.5 mph - 0.01 in Rain Light Rain
7:28 AM 39.2 °F 31.2 °F 35.6 °F 87% 29.88 in 9.0 mi NNW 13.8 mph 19.6 mph 0.02 in Rain Light Rain
7:51 AM 39.2 °F 33.6 °F 35.6 °F 87% 29.88 in 10.0 mi NNW 8.1 mph 17.3 mph 0.03 in Rain Light Rain
7:54 AM 39.9 °F 32.9 °F 36.0 °F 86% 29.89 in 10.0 mi NNW 11.5 mph 18.4 mph 0.03 in Rain Light Rain
8:38 AM 41.0 °F 33.5 °F 35.6 °F 81% 29.88 in 8.0 mi NNW 13.8 mph 20.7 mph 0.00 in Rain Light Rain
8:54 AM 41.0 °F 33.5 °F 37.0 °F 86% 29.89 in 8.0 mi NNW 13.8 mph 23.0 mph 0.00 in Rain Light Rain
9:54 AM 42.1 °F 34.5 °F 37.0 °F 82% 29.87 in 10.0 mi NNW 15.0 mph 24.2 mph 0.01 in   Overcast
10:54 AM 42.1 °F 34.9 °F 37.0 °F 82% 29.86 in 10.0 mi NNW 13.8 mph 27.6 mph 0.00 in   Overcast
11:10 AM 42.8 °F 36.6 °F 37.4 °F 81% 29.85 in 8.0 mi NNW 11.5 mph 19.6 mph N/A   Overcast
11:54 AM 43.0 °F 36.0 °F 37.9 °F 82% 29.85 in 10.0 mi NNW 13.8 mph 21.9 mph 0.00 in   Overcast
12:54 PM 43.0 °F 35.4 °F 37.9 °F 82% 29.83 in 10.0 mi NNW 16.1 mph 26.5 mph 0.00 in Rain Light Rain
1:54 PM 43.0 °F 36.4 °F 39.0 °F 86% 29.80 in 10.0 mi NNW 12.7 mph 23.0 mph 0.02 in Rain Light Rain
2:54 PM 44.1 °F 36.8 °F 37.9 °F 79% 29.77 in 10.0 mi North 16.1 mph 26.5 mph 0.01 in Rain Light Rain
4:54 PM 42.1 °F 33.3 °F 37.0 °F 82% 29.73 in 10.0 mi NW 19.6 mph 27.6 mph 0.03 in Rain Light Rain
5:54 PM 41.0 °F 31.6 °F 37.0 °F 86% 29.71 in 10.0 mi NW 20.7 mph 31.1 mph 0.01 in Rain Light Rain
6:54 PM 41.0 °F 32.8 °F 36.0 °F 82% 29.69 in 10.0 mi NNW 16.1 mph 33.4 mph 0.01 in Rain Light Rain
7:54 PM 39.9 °F 31.4 °F 36.0 °F 86% 29.66 in 10.0 mi NNW 16.1 mph 28.8 mph 0.01 in Rain Light Rain
8:54 PM 39.9 °F 29.7 °F 35.1 °F 83% 29.62 in 10.0 mi NNW 23.0 mph 31.1 mph 0.02 in Rain Light Rain
9:54 PM 39.0 °F 29.3 °F 34.0 °F 82% 29.59 in 10.0 mi NNW 19.6 mph 31.1 mph 0.01 in Rain Light Rain
11:54 PM 37.9 °F 27.1 °F 33.1 °F 83% 29.51 in 10.0 mi NW 23.0 mph 35.7 mph 0.01 in Rain Light Rain